KE7JVX-3 Weather Reports


Display with metric or nautical units.
time (UTC)temp
F
wind
direction
speed
MPH
gust
MPH
rain 1hr
in
rain 24hr
in
rain mn
in
humidity
%
barometer
mb
20260905044407 58 262 9.0 12.0 0.00 0.05 0.00 50 1016.7
20260905043407 58 266 8.0 12.0 0.00 0.05 0.00 50 1016.7
20260905042407 58 268 7.0 11.0 0.00 0.05 0.00 50 1016.8
20260905041407 58 259 6.0 11.0 0.00 0.05 0.00 51 1016.8
20260905040407 58 266 6.0 11.0 0.00 0.05 0.00 50 1016.8
20260905035407 58 259 4.0 13.0 0.00 0.05 0.00 50 1016.8
20260905034407 59 271 7.0 13.0 0.00 0.05 0.00 50 1016.7
20260905033408 59 274 8.0 14.0 0.00 0.05 0.00 50 1016.4
20260905032407 59 274 9.0 15.0 0.00 0.05 0.00 49 1016.3
20260905031407 59 276 11.0 15.0 0.00 0.05 0.00 49 1016.2
20260905030407 59 283 9.0 14.0 0.00 0.05 0.00 49 1016.1
20260905025407 59 280 9.0 15.0 0.00 0.05 0.00 49 1015.9
20260905024407 59 277 10.0 14.0 0.00 0.05 0.00 49 1015.9
20260905023406 59 273 7.0 17.0 0.00 0.05 0.00 48 1015.8
20260905022409 59 272 9.0 18.0 0.00 0.05 0.00 47 1015.7
20260905021408 59 262 9.0 17.0 0.00 0.05 0.00 47 1015.6
20260905020407 59 273 10.0 15.0 0.00 0.05 0.00 47 1015.6
20260905015407 59 287 5.0 13.0 0.00 0.05 0.00 47 1015.6
20260905014407 60 296 1.0 13.0 0.00 0.05 0.00 47 1015.6
20260905013407 60 275 7.0 13.0 0.00 0.05 0.00 45 1015.6
20260905012408 61 284 4.0 18.0 0.00 0.05 0.00 45 1015.5
20260905011407 62 269 4.0 13.0 0.00 0.05 0.00 44 1015.5
20260905010407 62 308 5.0 15.0 0.00 0.05 0.00 44 1015.5
20260905005410 61 296 4.0 15.0 0.00 0.05 0.00 44 1015.5
20260905004408 62 238 1.0 18.0 0.00 0.05 0.00 44 1015.4
20260905003407 62 290 8.0 19.0 0.00 0.05 0.00 43 1015.4
20260905002408 63 281 11.0 19.0 0.00 0.05 0.00 41 1015.3
20260905001407 64 258 7.0 16.0 0.00 0.05 0.00 42 1015.4
20260905000409 62 274 7.0 12.0 0.00 0.05 0.00 42 1015.4
20260904235407 62 282 4.0 16.0 0.00 0.05 0.00 42 1015.6
20260904234407 64 276 9.0 17.0 0.00 0.05 0.00 42 1015.7
20260904233407 64 268 9.0 15.0 0.00 0.05 0.00 41 1015.6
20260904232407 63 263 6.0 20.0 0.00 0.05 0.00 41 1015.7
20260904230909 63 294 8.0 13.0 0.00 0.05 0.05 38 1015.7
20260904225907 64 266 7.0 17.0 0.00 0.05 0.05 38 1015.8
20260904224907 64 255 7.0 14.0 0.00 0.05 0.05 37 1015.8
20260904223908 64 279 7.0 15.0 0.00 0.05 0.05 38 1015.7
20260904222909 63 259 3.0 17.0 0.00 0.05 0.05 42 1015.8
20260904221007 64 265 10.0 20.0 0.00 0.05 0.05 39 1015.9
20260904220006 64 256 7.0 13.0 0.00 0.05 0.05 44 1016.0
20260904215014 63 239 8.0 20.0 0.00 0.05 0.05 43 1016.1
20260904214006 63 222 3.0 13.0 0.00 0.05 0.05 45 1016.1
20260904213007 63 246 8.0 24.0 0.00 0.05 0.05 38 1016.1
20260904212008 62 262 8.0 17.0 0.00 0.05 0.05 47 1016.2
20260904211006 62 258 10.0 19.0 0.00 0.05 0.05 47 1016.2
20260904210006 63 272 8.0 15.0 0.00 0.05 0.05 48 1016.4
20260904205006 62 263 5.0 17.0 0.00 0.05 0.05 48 1016.5
20260904204007 61 260 6.0 14.0 0.00 0.05 0.05 52 1016.5
20260904203006 62 262 5.0 16.0 0.00 0.05 0.05 50 1016.5
20260904202006 61 280 8.0 17.0 0.00 0.05 0.05 48 1016.6
20260904201006 62 254 6.0 14.0 0.00 0.05 0.05 51 1016.6
20260904200006 61 273 5.0 13.0 0.00 0.05 0.05 53 1016.7
20260904195006 61 254 5.0 14.0 0.00 0.05 0.05 48 1016.8
20260904194006 61 275 5.0 14.0 0.00 0.05 0.05 44 1016.9
20260904193008 61 254 6.0 15.0 0.00 0.05 0.05 40 1016.9
20260904192007 61 262 5.0 11.0 0.00 0.05 0.05 46 1017.1
20260904191006 60 250 2.0 15.0 0.00 0.05 0.05 41 1017.0
20260904190007 61 243 5.0 14.0 0.00 0.05 0.05 55 1017.1
20260904185006 61 287 4.0 10.0 0.00 0.05 0.05 45 1017.2
20260904184006 60 254 3.0 13.0 0.00 0.05 0.05 50 1017.3
20260904183006 60 267 4.0 12.0 0.00 0.05 0.05 60 1017.2
20260904182006 59 252 4.0 10.0 0.00 0.05 0.05 60 1017.3
20260904181006 58 277 6.0 11.0 0.00 0.05 0.05 59 1017.4
20260904180008 58 269 4.0 11.0 0.00 0.05 0.05 65 1017.4
20260904175006 58 263 7.0 13.0 0.00 0.05 0.05 72 1017.5
20260904174009 57 242 3.0 9.0 0.00 0.05 0.05 73 1017.5
20260904173006 56 212 4.0 11.0 0.00 0.05 0.05 75 1017.4
20260904172007 55 267 8.0 12.0 0.00 0.05 0.05 76 1017.4
20260904171006 55 262 7.0 15.0 0.00 0.05 0.05 78 1017.3
20260904170006 55 256 5.0 12.0 0.00 0.05 0.05 78 1017.2
20260904165006 54 256 7.0 14.0 0.00 0.05 0.05 78 1017.1
20260904164007 54 262 7.0 13.0 0.00 0.05 0.05 79 1017.1
20260904163006 53 266 12.0 16.0 0.00 0.05 0.05 79 1016.9
20260904162006 54 276 5.0 14.0 0.00 0.05 0.05 79 1016.8
20260904161006 54 278 9.0 13.0 0.00 0.05 0.05 79 1016.8
20260904160006 53 278 8.0 14.0 0.00 0.05 0.05 79 1016.8
20260904155006 53 266 8.0 15.0 0.00 0.05 0.05 79 1016.7
20260904154006 54 249 4.0 16.0 0.00 0.05 0.05 79 1016.7
20260904153006 53 269 6.0 15.0 0.00 0.05 0.05 79 1016.6
20260904152006 53 270 6.0 17.0 0.00 0.05 0.05 79 1016.5
20260904151006 53 268 9.0 16.0 0.00 0.05 0.05 79 1016.4
20260904150007 53 266 14.0 19.0 0.00 0.05 0.05 79 1016.3
20260904145007 53 266 10.0 22.0 0.00 0.05 0.05 79 1016.3
20260904144007 54 270 9.0 18.0 0.00 0.05 0.05 79 1016.2
20260904143006 54 255 12.0 21.0 0.00 0.05 0.05 79 1016.1
20260904142006 53 260 15.0 23.0 0.00 0.05 0.05 79 1016.0
20260904141006 53 271 11.0 20.0 0.00 0.05 0.05 79 1016.0
20260904140006 53 276 13.0 19.0 0.00 0.05 0.05 79 1015.8
20260904135006 53 262 9.0 17.0 0.00 0.05 0.05 79 1015.7
20260904134006 53 279 9.0 18.0 0.00 0.05 0.05 79 1015.7
20260904133007 53 276 12.0 20.0 0.00 0.05 0.05 79 1015.6
20260904132006 53 261 9.0 19.0 0.00 0.05 0.05 79 1015.5
20260904131006 53 250 10.0 19.0 0.00 0.05 0.05 79 1015.4
20260904130007 53 254 10.0 18.0 0.00 0.05 0.05 79 1015.2
20260904125006 54 250 11.0 18.0 0.00 0.05 0.05 79 1015.1
20260904124006 53 253 10.0 22.0 0.00 0.05 0.05 79 1015.1
20260904123006 54 244 10.0 21.0 0.00 0.05 0.05 79 1014.9
20260904122009 54 260 12.0 21.0 0.00 0.05 0.05 78 1014.8
20260904121006 55 252 12.0 24.0 0.00 0.05 0.05 79 1014.8
20260904120006 54 263 15.0 25.0 0.00 0.05 0.05 78 1014.8
20260904115006 54 246 12.0 21.0 0.00 0.05 0.05 78 1014.8
20260904114006 55 258 13.0 20.0 0.00 0.05 0.05 79 1014.8
20260904113006 55 261 14.0 23.0 0.00 0.05 0.05 79 1014.8
20260904112006 55 247 11.0 21.0 0.00 0.05 0.05 78 1014.8
20260904111006 55 251 14.0 25.0 0.00 0.05 0.05 78 1014.8
20260904110006 55 267 17.0 26.0 0.00 0.05 0.05 78 1014.7
20260904104907 55 255 19.0 27.0 0.00 0.05 0.05 78 1014.6
20260904103907 55 261 19.0 28.0 0.00 0.05 0.05 78 1014.5
20260904102907 55 263 19.0 27.0 0.00 0.05 0.05 78 1014.6
20260904101907 55 262 17.0 26.0 0.00 0.05 0.05 78 1014.6
20260904100907 55 256 18.0 27.0 0.00 0.05 0.05 78 1014.5
20260904095908 55 266 20.0 26.0 0.00 0.05 0.05 78 1014.5
20260904094907 55 261 17.0 27.0 0.00 0.05 0.05 78 1014.5
20260904093907 55 263 16.0 26.0 0.00 0.05 0.05 78 1014.5
20260904092909 55 262 16.0 21.0 0.00 0.05 0.05 78 1014.5
20260904091907 55 260 14.0 26.0 0.00 0.05 0.05 78 1014.6
20260904090907 55 265 15.0 24.0 0.00 0.05 0.05 78 1014.6
20260904085909 55 262 17.0 24.0 0.00 0.05 0.05 78 1014.5
20260904084907 55 268 17.0 26.0 0.00 0.05 0.05 78 1014.7
20260904083907 55 263 18.0 27.0 0.00 0.05 0.05 78 1014.8
20260904082907 55 261 17.0 25.0 0.00 0.05 0.05 78 1014.8
20260904081907 55 260 16.0 27.0 0.00 0.05 0.05 78 1014.9
20260904080908 55 266 17.0 27.0 0.00 0.05 0.05 78 1014.9
20260904075907 55 259 14.0 22.0 0.00 0.05 0.05 78 1015.2
20260904074907 55 262 15.0 22.0 0.05 0.05 0.05 77 1015.3
20260904073907 55 260 13.0 23.0 0.05 0.05 0.05 77 1015.3
20260904072907 55 262 12.0 21.0 0.05 0.05 0.05 77 1015.3
20260904071907 55 257 11.0 18.0 0.05 0.05 0.05 77 1015.4
20260904070907 55 256 13.0 20.0 0.05 0.05 0.05 77 1015.4
20260904065907 54 275 12.0 26.0 0.05 0.05 0.05 77 1015.4
20260904064907 54 268 13.0 21.0 0.00 0.00 0.00 77 1015.2
20260904063907 55 248 11.0 22.0 0.00 0.00 0.00 76 1015.3
20260904062907 55 249 13.0 19.0 0.00 0.00 0.00 76 1015.2
20260904061907 55 242 13.0 19.0 0.00 0.00 0.00 75 1015.1
20260904060907 55 241 10.0 17.0 0.00 0.00 0.00 74 1015.1
20260904055907 55 251 12.0 21.0 0.00 0.00 0.00 74 1015.1
20260904054907 55 249 11.0 17.0 0.00 0.00 0.00 73 1015.1
20260904053908 55 254 13.0 19.0 0.00 0.00 0.00 72 1015.2
20260904052908 56 248 11.0 16.0 0.00 0.00 0.00 68 1015.2
20260904051907 56 244 8.0 13.0 0.00 0.00 0.00 66 1015.3
20260904050907 57 246 7.0 12.0 0.00 0.00 0.00 64 1015.3
20260904045907 57 244 9.0 14.0 0.00 0.00 0.00 62 1015.2